This is the latest recevied weather packets stored in our database for station/object K7TSD. If no packets are shown the sender has not sent any weather packets the latest 10 day(s).
| Time | Temp. | Humidity | Pressure | Rain* | Wind** | Luminosity | Snow |
|---|---|---|---|---|---|---|---|
| 1778144612 | 3.89° C | 58% | 1007.7 hPa | 0 mm | - | 0 W/m² | - |
| 1778144309 | 3.33° C | 60% | 1007.9 hPa | 0 mm | - | 0 W/m² | - |
| 1778144006 | 3.89° C | 58% | 1007.8 hPa | 0 mm | - | 0 W/m² | - |
| 1778143703 | 3.33° C | 61% | 1008 hPa | 0 mm | - | 0 W/m² | - |
| 1778143399 | 2.78° C | 60% | 1007.8 hPa | 0 mm | - | 0 W/m² | - |
| 1778143097 | 3.89° C | 57% | 1007.8 hPa | 0 mm | - | 0 W/m² | - |
| 1778142793 | 6.11° C | 56% | 1008 hPa | 0 mm | - | 0 W/m² | - |
| 1778142489 | 5.56° C | 50% | 1007.5 hPa | 0 mm | - | 0 W/m² | - |
| 1778142185 | 5.56° C | 48% | 1007.9 hPa | 0 mm | - | 0 W/m² | - |
| 1778141883 | 6.67° C | 48% | 1007.8 hPa | 0 mm | - | 0 W/m² | - |
| 1778141578 | 6.11° C | 49% | 1007.5 hPa | 0 mm | - | 0 W/m² | - |
| 1778141275 | 6.67° C | 48% | 1007.8 hPa | 0 mm | - | 0 W/m² | - |
| 1778140972 | 6.67° C | 48% | 1007.7 hPa | 0 mm | - | 0 W/m² | - |
| 1778140667 | 6.67° C | 47% | 1007.9 hPa | 0 mm | - | 0 W/m² | - |
| 1778140363 | 6.11° C | 48% | 1007.9 hPa | 0 mm | - | 0 W/m² | - |
| 1778140059 | 5° C | 51% | 1008.2 hPa | 0 mm | - | 0 W/m² | - |
| 1778139758 | 5° C | 56% | 1008.2 hPa | 0 mm | - | 0 W/m² | - |
| 1778139454 | 5° C | 53% | 1008.1 hPa | 0 mm | - | 0 W/m² | - |
| 1778139151 | 5.56° C | 53% | 1008.1 hPa | 0 mm | - | 0 W/m² | - |
| 1778138849 | 6.11° C | 51% | 1008.2 hPa | 0 mm | - | 0 W/m² | - |
| 1778138546 | 5° C | 50% | 1008.4 hPa | 0 mm | - | 0 W/m² | - |
| 1778138243 | 5° C | 55% | 1008.4 hPa | 0 mm | - | 0 W/m² | - |
| 1778137939 | 5° C | 56% | 1008.1 hPa | 0 mm | - | 0 W/m² | - |
| 1778137637 | 5° C | 56% | 1008.4 hPa | 0 mm | - | 0 W/m² | - |
| 1778137333 | 5.56° C | 55% | 1008.5 hPa | 0 mm | - | 0 W/m² | - |
* Rain latest hour (hover to see other rain measurements)
** Current wind speed in m/s (hover to see current wind gust speed)